QPF
0.05 0.04 0.04 0.06 0.07 0.07 0.08 0.10 0.11 0.12 0.13 0.15 0.18 0.21 0.23 0.25 0.26 0.25 0.24 0.21 0.20 0.19 0.19 0.19 0.17 0.16 0.15 0.14 0.13 0.13 0.12 0.11 0.10 0.06 0.03 0.03 0.04 0.04 0.06 0.06 0.07 0.08 0.07
0.06 0.06 0.07 0.07 0.07 0.07 0.08 0.10 0.11 0.10 0.10 0.11 0.13 0.16 0.20 0.24 0.27 0.29 0.28 0.25 0.22 0.20 0.19 0.19 0.18 0.17 0.17 0.16 0.15 0.14 0.12 0.12 0.12 0.10 0.07 0.05 0.06 0.06 0.07 0.07 0.08 0.07 0.07
0.07 0.08 0.10 0.10 0.08 0.07 0.07 0.07 0.08 0.08 0.10 0.11 0.12 0.13 0.15 0.17 0.20 0.24 0.28 0.27 0.25 0.23 0.21 0.20 0.19 0.18 0.17 0.16 0.15 0.13 0.12 0.11 0.11 0.11 0.08 0.06 0.06 0.07 0.08 0.08 0.07 0.07 0.07
0.03 0.03 0.04 0.04 0.04 0.05 0.05 0.05 0.05 0.05 0.05 0.07 0.09 0.10 0.11 0.12 0.13 0.15 0.18 0.22 0.24 0.24 0.22 0.21 0.20 0.20 0.20 0.18 0.17 0.15 0.14 0.13 0.12 0.12 0.10 0.09 0.08 0.09 0.09 0.09 0.08 0.07 0.06
0.00 0.00 0.01 0.01 0.01 0.01 0.01 0.01 0.01 0.01 0.01 0.02 0.02 0.03 0.04 0.05 0.07 0.09 0.10 0.12 0.15 0.17 0.20 0.21 0.20 0.19 0.18 0.18 0.17 0.16 0.15 0.14 0.13 0.11 0.11 0.10 0.09 0.09 0.09 0.08 0.07 0.07 0.07
0.00 0.00 0.00 0.00 0.00 0.00 0.01 0.00 0.00 0.00 0.00 0.00 0.01 0.01 0.01 0.02 0.04 0.05 0.06 0.07 0.08 0.10 0.11 0.13 0.15 0.16 0.15 0.14 0.13 0.13 0.13 0.14 0.13 0.11 0.10 0.09 0.07 0.07 0.07 0.08 0.09 0.09 0.09
0.00 0.00 0.00 0.00 0.00 0.00 0.00 0.00 0.00 0.00 0.00 0.00 0.00 0.00 0.00 0.01 0.01 0.02 0.04 0.05 0.05 0.06 0.08 0.09 0.10 0.10 0.11 0.11 0.11 0.11 0.11 0.11 0.11 0.10 0.10 0.09 0.08 0.07 0.09 0.10 0.09 0.08 0.06
0.00 0.00 0.00 0.00 0.00 0.00 0.00 0.00 0.00 0.00 0.00 0.00 0.00 0.00 0.00 0.00 0.00 0.01 0.02 0.03 0.04 0.05 0.06 0.07 0.09 0.10 0.11 0.12 0.12 0.11 0.10 0.09 0.08 0.08 0.07 0.08 0.09 0.10 0.11 0.11 0.11 0.12 0.11
0.00 0.00 0.00 0.00 0.00 0.00 0.00 0.00 0.00 0.00 0.00 0.00 0.00 0.00 0.00 0.00 0.00 0.00 0.01 0.01 0.03 0.04 0.05 0.06 0.08 0.09 0.11 0.12 0.12 0.12 0.12 0.10 0.09 0.10 0.09 0.10 0.11 0.13 0.14 0.15 0.17 0.17 0.15
0.00 0.00 0.00 0.00 0.00 0.00 0.00 0.00 0.00 0.00 0.00 0.00 0.00 0.00 0.00 0.00 0.00 0.00 0.00 0.00 0.01 0.02 0.03 0.04 0.06 0.07 0.10 0.11 0.12 0.12 0.12 0.11 0.10 0.11 0.11 0.11 0.11 0.13 0.15 0.13 0.12 0.13 0.12
0.00 0.00 0.00 0.00 0.00 0.00 0.00 0.00 0.00 0.00 0.00 0.00 0.00 0.00 0.00 0.00 0.00 0.00 0.00 0.00 0.01 0.01 0.02 0.03 0.04 0.06 0.08 0.10 0.11 0.12 0.12 0.11 0.10 0.10 0.10 0.10 0.11 0.12 0.13 0.13 0.12 0.13 0.12
0.00 0.00 0.00 0.00 0.00 0.00 0.00 0.00 0.00 0.00 0.00 0.00 0.00 0.00 0.00 0.00 0.00 0.00 0.00 0.00 0.01 0.01 0.01 0.02 0.03 0.05 0.06 0.08 0.10 0.12 0.13 0.13 0.12 0.12 0.11 0.10 0.09 0.10 0.10 0.10 0.12 0.13 0.12
0.00 0.00 0.00 0.00 0.00 0.00 0.00 0.00 0.00 0.00 0.00 0.00 0.00 0.00 0.00 0.00 0.00 0.00 0.00 0.00 0.01 0.01 0.01 0.02 0.03 0.04 0.05 0.06 0.08 0.09 0.11 0.11 0.11 0.11 0.10 0.09 0.07 0.07 0.08 0.10 0.12 0.14 0.15
0.00 0.00 0.00 0.00 0.00 0.00 0.00 0.00 0.00 0.00 0.00 0.00 0.00 0.00 0.00 0.00 0.00 0.00 0.00 0.00 0.01 0.01 0.01 0.01 0.03 0.04 0.05 0.05 0.06 0.07 0.08 0.09 0.10 0.10 0.09 0.09 0.09 0.09 0.09 0.10 0.11 0.13 0.14
0.00 0.00 0.00 0.00 0.00 0.00 0.00 0.00 0.00 0.00 0.00 0.01 0.01 0.01 0.01 0.01 0.01 0.01 0.01 0.01 0.02 0.02 0.02 0.02 0.03 0.04 0.04 0.05 0.05 0.05 0.06 0.08 0.09 0.10 0.10 0.10 0.10 0.10 0.10 0.10 0.11 0.12 0.13
0.00 0.00 0.00 0.00 0.00 0.00 0.00 0.00 0.00 0.00 0.00 0.00 0.00 0.01 0.01 0.01 0.01 0.01 0.01 0.01 0.01 0.02 0.03 0.03 0.02 0.03 0.04 0.04 0.05 0.05 0.05 0.06 0.07 0.08 0.09 0.10 0.10 0.10 0.10 0.10 0.11 0.12 0.12
0.00 0.00 0.00 0.00 0.00 0.00 0.00 0.00 0.00 0.00 0.00 0.00 0.00 0.00 0.00 0.01 0.01 0.01 0.01 0.01 0.01 0.02 0.02 0.02 0.02 0.02 0.03 0.04 0.04 0.05 0.05 0.06 0.07 0.08 0.09 0.10 0.11 0.11 0.11 0.12 0.12 0.13 0.13
0.00 0.00 0.00 0.00 0.00 0.00 0.00 0.00 0.00 0.00 0.00 0.00 0.00 0.00 0.00 0.00 0.00 0.01 0.01 0.01 0.01 0.01 0.01 0.01 0.01 0.02 0.03 0.03 0.04 0.05 0.05 0.06 0.07 0.08 0.09 0.10 0.11 0.12 0.13 0.12 0.11 0.11 0.12
0.00 0.00 0.00 0.00 0.00 0.00 0.00 0.00 0.00 0.00 0.00 0.00 0.00 0.00 0.00 0.00 0.00 0.00 0.00 0.01 0.01 0.01 0.01 0.01 0.01 0.02 0.03 0.03 0.04 0.05 0.06 0.06 0.07 0.08 0.08 0.09 0.09 0.11 0.12 0.11 0.11 0.12 0.12
0.00 0.00 0.00 0.00 0.00 0.00 0.00 0.00 0.00 0.01 0.01 0.00 0.00 0.00 0.00 0.01 0.01 0.00 0.00 0.01 0.01 0.01 0.01 0.02 0.02 0.02 0.03 0.03 0.04 0.05 0.06 0.06 0.07 0.07 0.08 0.09 0.09 0.09 0.09 0.10 0.11 0.12 0.11
0.00 0.00 0.00 0.00 0.00 0.00 0.00 0.00 0.01 0.01 0.01 0.01 0.00 0.00 0.01 0.02 0.01 0.01 0.01 0.01 0.01 0.01 0.02 0.02 0.02 0.02 0.03 0.03 0.03 0.03 0.05 0.05 0.05 0.06 0.07 0.08 0.09 0.09 0.09 0.10 0.11 0.11 0.11
0.00 0.00 0.00 0.00 0.00 0.00 0.00 0.00 0.01 0.01 0.01 0.01 0.01 0.01 0.01 0.01 0.01 0.01 0.01 0.01 0.01 0.01 0.02 0.02 0.02 0.02 0.03 0.03 0.04 0.04 0.04 0.04 0.05 0.06 0.07 0.08 0.09 0.09 0.09 0.10 0.11 0.11 0.11
0.00 0.00 0.00 0.00 0.00 0.00 0.00 0.00 0.00 0.01 0.01 0.01 0.01 0.01 0.01 0.01 0.01 0.01 0.01 0.01 0.02 0.02 0.02 0.02 0.03 0.02 0.02 0.03 0.03 0.04 0.04 0.04 0.05 0.06 0.07 0.08 0.08 0.09 0.09 0.09 0.10 0.10 0.09
0.00 0.00 0.00 0.00 0.00 0.00 0.00 0.00 0.00 0.00 0.01 0.01 0.01 0.01 0.01 0.01 0.01 0.02 0.02 0.02 0.02 0.02 0.02 0.03 0.03 0.03 0.02 0.03 0.03 0.03 0.04 0.04 0.05 0.06 0.07 0.08 0.08 0.08 0.08 0.08 0.09 0.09 0.09
0.00 0.00 0.00 0.00 0.00 0.00 0.00 0.00 0.00 0.00 0.00 0.01 0.01 0.01 0.01 0.01 0.02 0.02 0.02 0.02 0.03 0.03 0.02 0.03 0.03 0.03 0.03 0.03 0.03 0.03 0.03 0.04 0.04 0.05 0.06 0.07 0.07 0.08 0.08 0.08 0.08 0.08 0.08
0.00 0.00 0.00 0.00 0.00 0.00 0.00 0.00 0.00 0.01 0.01 0.01 0.01 0.01 0.01 0.01 0.01 0.02 0.02 0.02 0.03 0.03 0.03 0.03 0.03 0.03 0.03 0.02 0.02 0.02 0.03 0.03 0.03 0.04 0.05 0.06 0.06 0.06 0.07 0.07 0.07 0.07 0.07
MSLP
1020.76 1020.51 1020.25 1019.97 1019.66 1019.34 1019.02 1018.69 1018.37 1018.04 1017.71 1017.34 1016.94 1016.49 1015.99 1015.44 1014.86 1014.26 1013.66 1013.07 1012.50 1011.96 1011.45 1010.97 1010.51 1010.07 1009.64 1009.24 1008.88 1008.57 1008.31 1008.12 1008.00 1007.94 1007.93 1007.96 1008.00 1008.06 1008.11 1008.17 1008.24 1008.34 1008.48
1020.98 1020.75 1020.49 1020.20 1019.89 1019.56 1019.23 1018.89 1018.56 1018.22 1017.88 1017.53 1017.15 1016.74 1016.28 1015.79 1015.27 1014.73 1014.18 1013.62 1013.07 1012.54 1012.00 1011.48 1010.96 1010.45 1009.95 1009.47 1009.03 1008.64 1008.30 1008.04 1007.84 1007.70 1007.62 1007.57 1007.55 1007.55 1007.55 1007.57 1007.61 1007.70 1007.85
1021.06 1020.83 1020.58 1020.28 1019.96 1019.63 1019.28 1018.93 1018.58 1018.24 1017.90 1017.55 1017.19 1016.81 1016.39 1015.95 1015.49 1015.00 1014.51 1014.00 1013.48 1012.97 1012.44 1011.91 1011.38 1010.84 1010.31 1009.79 1009.30 1008.85 1008.45 1008.12 1007.85 1007.63 1007.46 1007.33 1007.23 1007.15 1007.09 1007.06 1007.08 1007.15 1007.31
1021.09 1020.87 1020.60 1020.30 1019.97 1019.62 1019.26 1018.89 1018.54 1018.18 1017.83 1017.49 1017.13 1016.76 1016.37 1015.97 1015.54 1015.10 1014.65 1014.18 1013.71 1013.23 1012.74 1012.23 1011.71 1011.19 1010.65 1010.13 1009.62 1009.14 1008.70 1008.30 1007.95 1007.65 1007.39 1007.17 1006.98 1006.81 1006.69 1006.61 1006.60 1006.66 1006.83
1021.12 1020.90 1020.63 1020.33 1019.98 1019.62 1019.24 1018.86 1018.49 1018.12 1017.76 1017.40 1017.03 1016.66 1016.28 1015.88 1015.47 1015.05 1014.63 1014.20 1013.76 1013.32 1012.87 1012.40 1011.93 1011.43 1010.93 1010.42 1009.92 1009.42 1008.95 1008.50 1008.07 1007.68 1007.33 1007.00 1006.71 1006.46 1006.27 1006.15 1006.10 1006.16 1006.33
1021.18 1020.97 1020.70 1020.38 1020.03 1019.65 1019.27 1018.87 1018.48 1018.09 1017.71 1017.32 1016.94 1016.54 1016.14 1015.74 1015.32 1014.90 1014.49 1014.07 1013.66 1013.26 1012.85 1012.43 1012.01 1011.57 1011.11 1010.63 1010.14 1009.64 1009.13 1008.63 1008.13 1007.64 1007.18 1006.75 1006.36 1006.03 1005.77 1005.60 1005.54 1005.60 1005.79
1021.25 1021.05 1020.78 1020.46 1020.10 1019.72 1019.31 1018.90 1018.49 1018.08 1017.67 1017.26 1016.84 1016.42 1015.99 1015.56 1015.12 1014.69 1014.26 1013.85 1013.46 1013.07 1012.70 1012.33 1011.96 1011.57 1011.16 1010.71 1010.24 1009.74 1009.20 1008.64 1008.06 1007.48 1006.91 1006.38 1005.89 1005.48 1005.16 1004.96 1004.88 1004.95 1005.17
1021.29 1021.10 1020.84 1020.52 1020.15 1019.75 1019.34 1018.91 1018.48 1018.05 1017.61 1017.18 1016.74 1016.29 1015.83 1015.36 1014.90 1014.44 1014.00 1013.57 1013.18 1012.81 1012.46 1012.12 1011.79 1011.44 1011.07 1010.66 1010.19 1009.68 1009.11 1008.49 1007.84 1007.17 1006.51 1005.88 1005.30 1004.82 1004.45 1004.22 1004.15 1004.23 1004.48
1021.25 1021.07 1020.81 1020.49 1020.12 1019.71 1019.28 1018.85 1018.40 1017.96 1017.51 1017.06 1016.60 1016.13 1015.64 1015.15 1014.66 1014.18 1013.71 1013.27 1012.87 1012.49 1012.15 1011.83 1011.52 1011.20 1010.85 1010.46 1010.00 1009.47 1008.87 1008.21 1007.49 1006.75 1006.00 1005.29 1004.65 1004.11 1003.70 1003.46 1003.39 1003.49 1003.77
1021.10 1020.93 1020.67 1020.35 1019.97 1019.56 1019.12 1018.67 1018.23 1017.78 1017.33 1016.87 1016.41 1015.93 1015.44 1014.94 1014.43 1013.92 1013.43 1012.97 1012.54 1012.15 1011.80 1011.47 1011.17 1010.85 1010.51 1010.13 1009.67 1009.13 1008.51 1007.81 1007.05 1006.25 1005.45 1004.68 1003.99 1003.42 1002.99 1002.74 1002.67 1002.80 1003.11
1020.83 1020.66 1020.41 1020.08 1019.70 1019.28 1018.84 1018.40 1017.96 1017.51 1017.08 1016.63 1016.18 1015.71 1015.23 1014.72 1014.20 1013.68 1013.16 1012.67 1012.20 1011.78 1011.40 1011.06 1010.74 1010.42 1010.07 1009.68 1009.23 1008.68 1008.05 1007.34 1006.56 1005.73 1004.91 1004.11 1003.40 1002.81 1002.38 1002.13 1002.07 1002.22 1002.55
1020.47 1020.30 1020.04 1019.71 1019.33 1018.92 1018.49 1018.05 1017.62 1017.20 1016.78 1016.36 1015.93 1015.47 1015.00 1014.49 1013.97 1013.43 1012.88 1012.35 1011.85 1011.39 1010.97 1010.58 1010.23 1009.89 1009.53 1009.14 1008.68 1008.15 1007.53 1006.83 1006.05 1005.24 1004.42 1003.63 1002.93 1002.35 1001.92 1001.68 1001.63 1001.79 1002.13
1020.05 1019.88 1019.63 1019.31 1018.94 1018.53 1018.11 1017.69 1017.27 1016.87 1016.47 1016.07 1015.66 1015.22 1014.75 1014.25 1013.72 1013.16 1012.58 1012.01 1011.46 1010.95 1010.47 1010.04 1009.65 1009.28 1008.91 1008.51 1008.07 1007.55 1006.96 1006.29 1005.56 1004.78 1004.00 1003.25 1002.58 1002.02 1001.62 1001.39 1001.35 1001.51 1001.85
1019.61 1019.46 1019.22 1018.92 1018.56 1018.17 1017.77 1017.36 1016.95 1016.56 1016.17 1015.78 1015.38 1014.95 1014.48 1013.98 1013.43 1012.84 1012.23 1011.62 1011.02 1010.45 1009.92 1009.44 1009.01 1008.61 1008.23 1007.83 1007.40 1006.92 1006.38 1005.76 1005.09 1004.37 1003.65 1002.96 1002.33 1001.82 1001.44 1001.23 1001.20 1001.35 1001.68
1019.21 1019.08 1018.87 1018.59 1018.25 1017.88 1017.49 1017.09 1016.68 1016.29 1015.90 1015.50 1015.09 1014.64 1014.16 1013.63 1013.06 1012.44 1011.80 1011.15 1010.50 1009.89 1009.32 1008.80 1008.34 1007.92 1007.53 1007.15 1006.74 1006.30 1005.80 1005.25 1004.65 1004.01 1003.35 1002.72 1002.15 1001.68 1001.33 1001.14 1001.11 1001.26 1001.57
1018.86 1018.76 1018.58 1018.33 1018.02 1017.67 1017.28 1016.87 1016.46 1016.04 1015.62 1015.20 1014.75 1014.28 1013.76 1013.21 1012.60 1011.96 1011.29 1010.61 1009.94 1009.30 1008.70 1008.17 1007.69 1007.27 1006.88 1006.51 1006.13 1005.73 1005.29 1004.79 1004.25 1003.67 1003.08 1002.51 1001.99 1001.55 1001.23 1001.06 1001.03 1001.18 1001.48
1018.55 1018.49 1018.35 1018.13 1017.84 1017.50 1017.11 1016.68 1016.24 1015.79 1015.32 1014.85 1014.36 1013.84 1013.28 1012.69 1012.06 1011.40 1010.72 1010.03 1009.36 1008.72 1008.13 1007.59 1007.12 1006.71 1006.33 1005.98 1005.63 1005.26 1004.86 1004.40 1003.90 1003.37 1002.82 1002.29 1001.80 1001.39 1001.10 1000.93 1000.92 1001.06 1001.36
1018.27 1018.25 1018.14 1017.95 1017.68 1017.33 1016.93 1016.48 1016.00 1015.50 1014.98 1014.45 1013.90 1013.33 1012.74 1012.12 1011.48 1010.81 1010.14 1009.47 1008.82 1008.21 1007.64 1007.14 1006.69 1006.30 1005.94 1005.61 1005.28 1004.92 1004.53 1004.10 1003.62 1003.11 1002.58 1002.06 1001.59 1001.19 1000.91 1000.75 1000.74 1000.90 1001.21
1017.99 1017.99 1017.91 1017.74 1017.47 1017.13 1016.71 1016.23 1015.71 1015.16 1014.58 1013.99 1013.39 1012.79 1012.17 1011.53 1010.89 1010.25 1009.61 1008.98 1008.38 1007.81 1007.30 1006.83 1006.42 1006.06 1005.72 1005.40 1005.07 1004.71 1004.32 1003.87 1003.39 1002.87 1002.33 1001.81 1001.34 1000.95 1000.66 1000.51 1000.52 1000.69 1001.02
1017.69 1017.71 1017.64 1017.47 1017.21 1016.86 1016.43 1015.93 1015.37 1014.78 1014.16 1013.54 1012.90 1012.27 1011.63 1011.01 1010.39 1009.77 1009.18 1008.60 1008.06 1007.55 1007.09 1006.67 1006.30 1005.95 1005.62 1005.30 1004.95 1004.58 1004.16 1003.69 1003.18 1002.64 1002.08 1001.55 1001.07 1000.67 1000.39 1000.25 1000.27 1000.47 1000.83
1017.36 1017.38 1017.31 1017.15 1016.89 1016.54 1016.10 1015.59 1015.01 1014.40 1013.77 1013.12 1012.48 1011.84 1011.21 1010.60 1010.01 1009.44 1008.89 1008.36 1007.87 1007.41 1006.99 1006.60 1006.24 1005.90 1005.56 1005.21 1004.84 1004.43 1003.98 1003.48 1002.94 1002.37 1001.80 1001.25 1000.77 1000.38 1000.11 999.99 1000.04 1000.27 1000.66
1017.02 1017.03 1016.95 1016.79 1016.54 1016.19 1015.75 1015.25 1014.68 1014.08 1013.45 1012.81 1012.18 1011.55 1010.95 1010.36 1009.79 1009.25 1008.73 1008.23 1007.76 1007.32 1006.90 1006.51 1006.14 1005.77 1005.40 1005.02 1004.61 1004.16 1003.67 1003.14 1002.58 1002.00 1001.44 1000.91 1000.44 1000.08 999.85 999.77 999.85 1000.11 1000.55
1016.70 1016.68 1016.60 1016.44 1016.19 1015.86 1015.44 1014.97 1014.43 1013.86 1013.26 1012.65 1012.04 1011.44 1010.86 1010.28 1009.72 1009.18 1008.66 1008.15 1007.66 1007.18 1006.72 1006.28 1005.85 1005.43 1005.01 1004.57 1004.11 1003.63 1003.12 1002.59 1002.04 1001.49 1000.96 1000.48 1000.07 999.77 999.60 999.58 999.73 1000.03 1000.51
1016.41 1016.38 1016.29 1016.13 1015.89 1015.58 1015.21 1014.77 1014.28 1013.76 1013.20 1012.64 1012.06 1011.48 1010.90 1010.32 1009.75 1009.17 1008.60 1008.03 1007.46 1006.90 1006.35 1005.82 1005.30 1004.79 1004.29 1003.79 1003.29 1002.79 1002.29 1001.78 1001.28 1000.80 1000.35 999.96 999.66 999.46 999.38 999.45 999.66 1000.02 1000.53
1016.19 1016.14 1016.04 1015.88 1015.67 1015.39 1015.06 1014.67 1014.23 1013.76 1013.25 1012.72 1012.17 1011.60 1011.02 1010.41 1009.78 1009.13 1008.47 1007.79 1007.11 1006.42 1005.74 1005.07 1004.43 1003.82 1003.23 1002.67 1002.15 1001.65 1001.17 1000.73 1000.31 999.94 999.62 999.37 999.21 999.14 999.19 999.35 999.65 1000.07 1000.61
1016.02 1015.96 1015.86 1015.71 1015.52 1015.27 1014.97 1014.63 1014.24 1013.81 1013.35 1012.85 1012.31 1011.73 1011.11 1010.45 1009.75 1009.00 1008.22 1007.40 1006.56 1005.72 1004.89 1004.08 1003.31 1002.59 1001.92 1001.31 1000.77 1000.29 999.87 999.51 999.22 998.99 998.83 998.74 998.74 998.82 999.00 999.29 999.67 1000.15 1000.71
Thickness
5512 5514 5517 5519 5521 5524 5526 5529 5531 5534 5537 5540 5544 5547 5551 5554 5557 5560 5563 5566 5568 5570 5571 5572 5575 5575 5576 5575 5574 5575 5575 5575 5578 5581 5579 5576 5574 5574 5573 5572 5572 5571 5571
5506 5508 5510 5512 5514 5517 5519 5520 5522 5525 5527 5529 5532 5535 5538 5541 5543 5546 5549 5552 5554 5557 5559 5561 5561 5563 5565 5565 5564 5565 5565 5566 5566 5567 5566 5564 5564 5564 5563 5562 5561 5560 5560
5501 5502 5505 5506 5507 5509 5510 5511 5513 5515 5517 5518 5521 5523 5525 5527 5529 5532 5534 5537 5540 5542 5545 5547 5549 5550 5551 5552 5552 5553 5554 5554 5553 5554 5555 5553 5552 5552 5550 5549 5549 5548 5548
5496 5497 5498 5499 5499 5500 5501 5502 5504 5505 5506 5507 5508 5510 5511 5513 5515 5517 5519 5522 5525 5527 5529 5531 5532 5534 5536 5537 5538 5539 5539 5540 5540 5541 5541 5540 5539 5538 5537 5537 5536 5536 5536
5491 5491 5491 5491 5491 5492 5492 5493 5493 5494 5494 5495 5496 5497 5497 5499 5500 5501 5504 5506 5509 5511 5512 5514 5514 5515 5516 5519 5521 5524 5523 5524 5525 5526 5527 5527 5527 5525 5526 5526 5525 5524 5523
5486 5485 5484 5484 5484 5483 5483 5483 5483 5484 5484 5484 5484 5484 5484 5484 5484 5484 5486 5489 5491 5493 5494 5496 5497 5498 5500 5501 5503 5505 5507 5509 5510 5511 5513 5515 5517 5516 5515 5513 5512 5509 5510
5480 5479 5477 5477 5476 5475 5474 5474 5474 5473 5473 5472 5471 5471 5470 5469 5468 5468 5469 5471 5473 5474 5475 5477 5479 5480 5480 5482 5485 5487 5490 5492 5492 5494 5498 5502 5503 5503 5500 5499 5500 5501 5504
5474 5472 5470 5468 5467 5466 5464 5463 5462 5460 5459 5458 5457 5455 5454 5453 5451 5451 5451 5453 5454 5455 5456 5457 5458 5460 5460 5461 5464 5468 5472 5474 5475 5477 5481 5485 5486 5486 5486 5487 5487 5484 5483
5467 5464 5461 5459 5457 5455 5454 5451 5449 5447 5445 5443 5441 5439 5438 5437 5434 5432 5431 5433 5434 5435 5435 5435 5436 5437 5438 5438 5442 5447 5452 5456 5456 5457 5460 5464 5466 5467 5467 5465 5466 5465 5466
5459 5455 5452 5449 5446 5444 5442 5439 5436 5434 5431 5429 5426 5423 5420 5418 5415 5412 5410 5411 5413 5413 5414 5414 5413 5413 5413 5414 5416 5421 5427 5432 5434 5436 5439 5443 5446 5449 5449 5450 5453 5452 5452
5449 5445 5442 5438 5435 5432 5429 5426 5423 5420 5417 5414 5411 5408 5403 5399 5396 5391 5388 5387 5388 5389 5390 5391 5391 5389 5390 5391 5392 5396 5401 5405 5410 5413 5417 5421 5424 5427 5430 5433 5436 5438 5439
5439 5436 5432 5428 5424 5420 5417 5413 5410 5406 5403 5399 5396 5391 5386 5381 5376 5372 5368 5365 5363 5364 5366 5367 5367 5366 5367 5369 5370 5374 5376 5380 5386 5390 5394 5398 5402 5406 5409 5412 5416 5420 5424
5430 5426 5422 5417 5413 5408 5404 5400 5397 5392 5387 5383 5379 5374 5369 5363 5357 5353 5349 5346 5343 5342 5343 5343 5343 5344 5346 5349 5351 5352 5354 5357 5362 5367 5372 5376 5380 5384 5387 5390 5394 5398 5403
5421 5417 5411 5407 5402 5396 5391 5386 5381 5377 5372 5367 5361 5356 5351 5344 5339 5334 5330 5327 5324 5323 5323 5324 5324 5325 5326 5327 5330 5332 5334 5336 5339 5344 5349 5354 5357 5361 5366 5371 5375 5379 5383
5411 5406 5400 5394 5389 5384 5378 5372 5366 5360 5353 5347 5342 5336 5331 5327 5321 5314 5310 5308 5306 5304 5304 5305 5307 5308 5309 5309 5310 5311 5313 5315 5318 5322 5328 5333 5338 5343 5347 5352 5357 5363 5368
5400 5395 5389 5383 5377 5372 5366 5360 5352 5344 5338 5330 5324 5317 5314 5308 5304 5300 5296 5293 5291 5289 5288 5289 5290 5290 5290 5290 5291 5293 5295 5298 5301 5304 5310 5315 5321 5326 5332 5337 5342 5348 5355
5389 5382 5376 5370 5365 5358 5352 5346 5341 5334 5325 5318 5311 5305 5299 5295 5291 5287 5284 5281 5278 5275 5273 5273 5272 5273 5273 5273 5274 5277 5279 5283 5286 5290 5295 5301 5307 5312 5318 5324 5330 5336 5342
5377 5370 5364 5358 5352 5345 5338 5332 5325 5320 5315 5308 5300 5293 5288 5283 5279 5275 5272 5269 5267 5262 5259 5257 5257 5257 5258 5258 5261 5263 5267 5271 5275 5280 5285 5290 5296 5301 5307 5313 5320 5327 5333
5366 5360 5353 5346 5339 5333 5326 5319 5312 5306 5300 5295 5290 5285 5278 5273 5268 5264 5260 5256 5253 5249 5246 5245 5244 5245 5245 5247 5249 5252 5256 5261 5266 5271 5277 5282 5287 5293 5299 5305 5311 5318 5324
5355 5347 5340 5334 5328 5321 5314 5307 5301 5294 5289 5283 5278 5274 5269 5264 5260 5255 5250 5245 5241 5238 5235 5234 5233 5233 5235 5237 5241 5244 5248 5253 5258 5264 5270 5276 5280 5286 5291 5297 5304 5310 5317
5345 5338 5329 5323 5317 5310 5303 5296 5290 5283 5278 5273 5268 5262 5257 5253 5249 5245 5240 5236 5232 5229 5226 5224 5224 5225 5227 5230 5234 5238 5242 5247 5253 5258 5264 5270 5275 5280 5285 5291 5297 5303 5310
5335 5328 5321 5313 5306 5299 5292 5286 5279 5273 5268 5263 5259 5254 5248 5243 5240 5236 5232 5229 5225 5222 5219 5218 5218 5220 5221 5224 5228 5233 5237 5243 5248 5253 5259 5265 5270 5276 5281 5287 5292 5298 5304
5325 5318 5311 5303 5296 5290 5283 5277 5270 5265 5259 5254 5249 5245 5241 5236 5233 5229 5226 5224 5221 5218 5216 5215 5215 5217 5219 5221 5224 5228 5234 5239 5244 5249 5255 5261 5267 5273 5278 5284 5289 5295 5301
5316 5309 5302 5295 5288 5281 5275 5269 5262 5257 5251 5246 5242 5237 5233 5230 5227 5224 5221 5219 5217 5216 5214 5214 5214 5216 5217 5219 5223 5228 5232 5237 5242 5247 5253 5259 5265 5271 5276 5281 5286 5292 5297
5308 5300 5293 5286 5280 5273 5267 5261 5255 5250 5244 5239 5235 5231 5228 5224 5222 5220 5218 5216 5215 5215 5215 5215 5215 5217 5219 5221 5224 5228 5233 5237 5242 5247 5253 5259 5264 5269 5274 5279 5284 5290 5294
5300 5292 5285 5278 5272 5266 5259 5254 5249 5243 5238 5233 5229 5226 5223 5221 5219 5218 5216 5215 5215 5215 5216 5217 5218 5219 5221 5224 5227 5231 5235 5239 5244 5249 5253 5259 5264 5269 5274 5279 5283 5288 5292